Charlotte, MI

7:43 PM EDT on May 27, 2018 (GMT -0400)
Charlotte

Weather History for KFPK - November, 2012

Change the Weather History Date:

Sunday, November 11, 2012

  Actual Average (WUND) Record (WUND)
Temperature  
Mean Temperature 62 °F -  
Max Temperature 69 °F - - (-1)
Min Temperature 54 °F - - (-1)
Degree Days  
Heating Degree Days 4    
Growing Degree Days 12 (Base 50)    
Moisture  
Dew Point 45 °F    
Average Humidity 52    
Maximum Humidity 67    
Minimum Humidity 40    
Precipitation  
Precipitation 0.00 in - - ()
Sea Level Pressure  
Sea Level Pressure 29.97 in    
Wind  
Wind Speed 16 mph (South)    
Max Wind Speed 25 mph    
Max Gust Speed 36 mph    
Visibility 10 miles    
Events      
Averages and records for this station are not official NWS values.
T = Trace of Precipitation, MM = Missing Value Source: NWS Daily Summary

Daily Weather History Graph

Daily Weather History Graph

Search for Another Location

Airport or City:

Astronomy

Nov. 11, 2012 Rise Set
Actual Time 7:26 AM EST 5:20 PM EST
Civil Twilight 6:56 AM EST 5:50 PM EST
Nautical Twilight 6:22 AM EST 6:23 PM EST
Astronomical Twilight 5:49 AM EST 6:57 PM EST
Moon 4:36 AM EST (11/11) 3:45 PM EST (11/11)
Length of Visible Light 10h 54m
Length of Day
9h 53m
Waning Crescent, 7% of the Moon is Illuminated
Nov 11
Waning Crescent
Nov 13
New
Nov 20
First Quarter
Nov 28
Full
Dec 6
Last Quarter

Hourly Weather History & Observations

Time (EST) Temp. Dew Point Humidity Pressure Visibility Wind Dir Wind Speed Gust Speed Precip Events Conditions
12:15 AM 62.8 °F 45.1 °F 53% 29.98 in 10.0 mi SSW 13.8 mph 18.4 mph N/A   Clear
12:35 AM 61.9 °F 45.3 °F 55% 29.98 in 10.0 mi SSW 13.8 mph 23.0 mph N/A   Clear
12:55 AM 61.7 °F 45.5 °F 55% 29.99 in 10.0 mi SSW 12.7 mph 21.9 mph N/A   Clear
1:15 AM 61.2 °F 45.7 °F 57% 29.99 in 10.0 mi SSW 13.8 mph 21.9 mph N/A   Clear
1:35 AM 61.0 °F 45.7 °F 57% 29.99 in 10.0 mi SSW 17.3 mph 21.9 mph N/A   Clear
1:55 AM 61.3 °F 45.7 °F 56% 29.99 in 10.0 mi SSW 16.1 mph 20.7 mph N/A   Clear
2:15 AM 61.3 °F 45.5 °F 56% 30.00 in 10.0 mi SSW 15.0 mph 20.7 mph N/A   Clear
2:35 AM 61.7 °F 45.0 °F 54% 30.00 in 10.0 mi SSW 16.1 mph 19.6 mph N/A   Clear
2:55 AM 61.5 °F 45.1 °F 55% 30.01 in 10.0 mi SSW 12.7 mph 23.0 mph N/A   Clear
3:15 AM 61.3 °F 45.1 °F 55% 30.01 in 10.0 mi SSW 10.4 mph 17.3 mph N/A   Clear
3:35 AM 61.3 °F 45.1 °F 55% 30.01 in 10.0 mi SSW 11.5 mph 21.9 mph N/A   Clear
3:55 AM 61.3 °F 45.0 °F 55% 30.01 in 10.0 mi SSW 13.8 mph 20.7 mph N/A   Clear
4:15 AM 60.8 °F 44.6 °F 55% 30.02 in 10.0 mi SSW 10.4 mph 17.3 mph N/A   Clear
4:35 AM 60.8 °F 44.1 °F 54% 30.03 in 10.0 mi SSW 10.4 mph 20.7 mph N/A   Clear
4:55 AM 60.1 °F 43.7 °F 55% 30.03 in 10.0 mi SSW 11.5 mph 18.4 mph N/A   Clear
5:15 AM 59.4 °F 43.3 °F 55% 30.04 in 10.0 mi SSW 12.7 mph 17.3 mph N/A   Clear
5:35 AM 59.2 °F 43.3 °F 56% 30.05 in 10.0 mi SSW 12.7 mph 18.4 mph N/A   Clear
5:55 AM 58.6 °F 43.3 °F 57% 30.05 in 10.0 mi SSW 10.4 mph 17.3 mph N/A   Clear
6:35 AM 57.2 °F 43.5 °F 60% 30.05 in 10.0 mi South 13.8 mph - N/A   Clear
6:55 AM 56.5 °F 43.2 °F 61% 30.05 in 10.0 mi South 9.2 mph - N/A   Clear
7:15 AM 56.3 °F 43.3 °F 62% 30.05 in 10.0 mi South 10.4 mph - N/A   Clear
7:35 AM 54.9 °F 43.7 °F 66% 30.05 in 10.0 mi South 10.4 mph - N/A   Clear
7:55 AM 55.0 °F 44.2 °F 67% 30.04 in 10.0 mi South 10.4 mph - N/A   Clear
8:35 AM 57.0 °F 44.2 °F 62% 30.03 in 10.0 mi South 12.7 mph - N/A   Clear
8:55 AM 57.6 °F 44.1 °F 61% 30.03 in 10.0 mi South 15.0 mph 23.0 mph N/A   Clear
9:15 AM 58.6 °F 44.6 °F 60% 30.03 in 10.0 mi South 13.8 mph 21.9 mph N/A   Clear
9:35 AM 59.4 °F 44.6 °F 58% 30.03 in 10.0 mi South 16.1 mph 24.2 mph N/A   Clear
9:55 AM 60.6 °F 45.5 °F 57% 30.04 in 10.0 mi South 17.3 mph 21.9 mph N/A   Clear
10:15 AM 61.9 °F 45.5 °F 55% 30.03 in 10.0 mi South 17.3 mph 25.3 mph N/A   Clear
10:35 AM 61.7 °F 45.3 °F 55% 30.04 in 10.0 mi SSW 18.4 mph 25.3 mph N/A   Clear
10:55 AM 61.5 °F 45.7 °F 56% 30.03 in 10.0 mi SSW 16.1 mph 25.3 mph N/A   Clear
11:15 AM 62.1 °F 46.0 °F 56% 30.02 in 10.0 mi South 20.7 mph 26.5 mph N/A   Clear
11:35 AM 63.9 °F 47.3 °F 55% 30.01 in 10.0 mi South 19.6 mph 28.8 mph N/A   Clear
11:55 AM 65.5 °F 47.7 °F 53% 30.01 in 10.0 mi South 20.7 mph 28.8 mph N/A   Clear
12:15 PM 64.6 °F 48.0 °F 55% 29.99 in 10.0 mi South 16.1 mph 26.5 mph N/A   Clear
12:35 PM 69.1 °F 49.3 °F 49% 29.98 in 10.0 mi SSW 20.7 mph 33.4 mph N/A   Clear
1:15 PM 68.2 °F 48.4 °F 49% 29.97 in 10.0 mi South 25.3 mph 28.8 mph N/A   Clear
1:35 PM 68.5 °F 48.2 °F 48% 29.96 in 10.0 mi South 25.3 mph 32.2 mph N/A   Clear
1:55 PM 68.2 °F 48.7 °F 50% 29.96 in 10.0 mi South 20.7 mph 32.2 mph N/A   Clear
2:15 PM 69.1 °F 48.7 °F 48% 29.95 in 10.0 mi South 21.9 mph 35.7 mph N/A   Clear
2:35 PM 69.6 °F 48.7 °F 47% 29.93 in 10.0 mi South 16.1 mph 29.9 mph N/A   Clear
2:55 PM 69.8 °F 48.4 °F 46% 29.93 in 10.0 mi South 25.3 mph 33.4 mph N/A   Clear
3:15 PM 69.4 °F 48.0 °F 46% 29.93 in 10.0 mi South 18.4 mph 31.1 mph N/A   Clear
3:35 PM 68.9 °F 47.5 °F 46% 29.92 in 10.0 mi South 20.7 mph 33.4 mph N/A   Clear
3:55 PM 68.5 °F 47.3 °F 47% 29.93 in 10.0 mi South 20.7 mph 28.8 mph N/A   Clear
4:15 PM 67.8 °F 47.3 °F 48% 29.93 in 10.0 mi South 25.3 mph 29.9 mph N/A   Clear
4:35 PM 67.1 °F 47.3 °F 49% 29.93 in 10.0 mi South 20.7 mph 29.9 mph N/A   Clear
4:55 PM 66.4 °F 47.3 °F 50% 29.92 in 10.0 mi South 17.3 mph 25.3 mph N/A   Clear
5:15 PM 65.3 °F 47.3 °F 52% 29.91 in 10.0 mi South 19.6 mph 29.9 mph N/A   Clear
5:35 PM 65.3 °F 46.8 °F 51% 29.90 in 10.0 mi SSE 16.1 mph 24.2 mph N/A   Clear
5:55 PM 63.9 °F 46.8 °F 54% 29.91 in 10.0 mi South 17.3 mph 26.5 mph N/A   Clear
6:15 PM 63.7 °F 46.6 °F 54% 29.92 in 10.0 mi South 16.1 mph 28.8 mph N/A   Clear
6:35 PM 63.1 °F 46.6 °F 55% 29.92 in 10.0 mi South 20.7 mph 27.6 mph N/A   Clear
6:55 PM 62.6 °F 46.4 °F 55% 29.93 in 10.0 mi South 19.6 mph 29.9 mph N/A   Scattered Clouds
7:15 PM 62.6 °F 46.2 °F 55% 29.92 in 10.0 mi South 17.3 mph 26.5 mph N/A   Mostly Cloudy
7:35 PM 62.1 °F 45.7 °F 55% 29.90 in 10.0 mi SSE 19.6 mph 27.6 mph N/A   Mostly Cloudy
7:55 PM 61.7 °F 44.6 °F 53% 29.90 in 10.0 mi South 20.7 mph 28.8 mph N/A   Scattered Clouds
8:15 PM 61.9 °F 42.1 °F 48% 29.90 in 10.0 mi South 20.7 mph 26.5 mph N/A   Clear
8:35 PM 62.4 °F 39.6 °F 43% 29.90 in 10.0 mi South 21.9 mph 31.1 mph N/A   Scattered Clouds
8:55 PM 62.8 °F 39.2 °F 42% 29.91 in 10.0 mi South 16.1 mph 27.6 mph N/A   Overcast
9:15 PM 63.0 °F 38.3 °F 40% 29.92 in 10.0 mi South 23.0 mph 33.4 mph N/A   Overcast
9:35 PM 63.0 °F 37.9 °F 40% 29.92 in 10.0 mi South 19.6 mph 28.8 mph N/A   Overcast
9:55 PM 62.2 °F 38.8 °F 42% 29.91 in 10.0 mi South 17.3 mph 32.2 mph N/A   Overcast
10:15 PM 62.1 °F 38.8 °F 42% 29.90 in 10.0 mi South 17.3 mph 24.2 mph N/A   Overcast
10:35 PM 61.9 °F 38.7 °F 42% 29.89 in 10.0 mi South 17.3 mph 26.5 mph N/A   Overcast
10:55 PM 61.7 °F 38.3 °F 42% 29.89 in 10.0 mi South 15.0 mph 23.0 mph N/A   Overcast
11:15 PM 61.2 °F 37.8 °F 42% 29.89 in 10.0 mi South 15.0 mph - N/A   Overcast
11:35 PM 61.0 °F 37.4 °F 42% 29.88 in 10.0 mi South 15.0 mph 23.0 mph N/A   Overcast
11:55 PM 61.3 °F 37.6 °F 41% 29.88 in 10.0 mi South 15.0 mph 25.3 mph N/A   Overcast